Coral Harbour, Nunavut

6:40 PM EDT on August 30, 2016 (GMT -0400)
Coral Harbour

Weather History for CYZS - October, 2011

Change the Weather History Date:

Saturday, October 8, 2011

  Actual Average Record
Temperature  
Mean Temperature 26 °F -  
Max Temperature 30 °F 21 °F 37 °F (2001)
Min Temperature 23 °F 7 °F 6 °F (1996)
Degree Days  
Heating Degree Days 38    
Moisture  
Dew Point 26 °F    
Average Humidity 92    
Maximum Humidity 100    
Minimum Humidity 83    
Precipitation  
Precipitation 0.01 in 0.04 in - ()
Sea Level Pressure  
Sea Level Pressure 29.74 in    
Wind  
Wind Speed 9 mph ()    
Max Wind Speed 24 mph    
Max Gust Speed 29 mph    
Visibility 14.8 miles    
Events Snow    
Averages and records for this station are not official NWS values.
T = Trace of Precipitation, MM = Missing Value Source: Averaged Metar Reports

Daily Weather History Graph

Daily Weather History Graph

Search for Another Location

Airport or City:

Trip Planner

Search our weather history database for the weather conditions in past years. The results will help you decide how hot, cold, wet, or windy it might be!

Date:

Astronomy

Oct. 08, 2011 Rise Set
Actual Time 8:02 AM EDT 6:38 PM EDT
Civil Twilight 7:14 AM EDT 7:26 PM EDT
Nautical Twilight 6:18 AM EDT 8:21 PM EDT
Astronomical Twilight 5:20 AM EDT 9:19 PM EDT
Moon 5:30 PM EDT (10/8) 3:52 AM EDT (10/8)
Length of Visible Light 12h 11m
Length of Day
10h 36m
Waxing Gibbous, 90% of the Moon is Illuminated
Oct 8
Waxing Gibbous
Oct 11
Full
Oct 19
Last Quarter
Oct 26
New
Nov 2
First Quarter

Hourly Weather History & Observations

Time (EDT) Temp. Windchill Dew Point Humidity Pressure Visibility Wind Dir Wind Speed Gust Speed Precip Events Conditions
12:00 AM 26.6 °F - 24.8 °F 93% 29.92 in 15.0 mi NW 2.3 mph - N/A   Mostly Cloudy
2:00 AM 28 °F - 27 °F 92% 29.91 in 15 mi WNW 3.5 mph - -   Scattered Clouds
2:00 AM 28.4 °F 24.6 °F 26.6 °F 93% 29.91 in 15.0 mi WNW 3.5 mph - N/A   Mostly Cloudy
3:31 AM - - - N/A% - 15.0 mi Calm Calm - N/A   Unknown
5:00 AM 24.8 °F 14.0 °F 23.0 °F 93% 29.90 in 15.0 mi East 11.5 mph - N/A Snow Light Snow
6:00 AM 24.8 °F 17.9 °F 23.0 °F 93% 29.88 in 15.0 mi NE 5.8 mph - N/A Snow Light Snow
7:00 AM 23.0 °F 13.1 °F 23.0 °F 100% 29.87 in 15.0 mi ENE 9.2 mph - N/A Snow Light Snow
8:00 AM 23 °F - 22 °F 92% 29.85 in 15 mi ENE 5.8 mph - - Snow Light Snow
8:00 AM 23.0 °F 15.8 °F 21.2 °F 93% 29.85 in 15.0 mi ENE 5.8 mph - N/A Snow Light Snow
8:39 AM - - - N/A% - 15.0 mi East 5.8 mph - N/A   Mostly Cloudy
9:00 AM 24.8 °F 17.9 °F 24.8 °F 100% 29.83 in 15.0 mi East 5.8 mph - N/A   Mostly Cloudy
10:00 AM 26.6 °F 14.7 °F 24.8 °F 93% 29.81 in 15.0 mi East 15.0 mph - N/A   Mostly Cloudy
11:00 AM 28.4 °F 18.0 °F 26.6 °F 93% 29.80 in 15.0 mi East 12.7 mph - N/A   Mostly Cloudy
11:17 AM - - - N/A% - 12.0 mi East 16.1 mph - N/A   Unknown
12:00 PM 28.4 °F 17.0 °F 26.6 °F 93% 29.76 in 12.0 mi ESE 15.0 mph - N/A Snow Light Snow
1:00 PM 30.2 °F 18.5 °F 26.6 °F 86% 29.74 in 15.0 mi East 17.3 mph - N/A Snow Light Snow
2:00 PM 29 °F - 28 °F 93% 29.71 in 15 mi East 17.3 mph - - Snow Light Snow
2:00 PM 30.2 °F 18.5 °F 28.4 °F 93% 29.71 in 15.0 mi East 17.3 mph 23.0 mph N/A Snow Light Snow
3:00 PM 30.2 °F 18.1 °F 26.6 °F 86% 29.68 in 15.0 mi East 18.4 mph - N/A Snow Light Snow
3:13 PM - - - N/A% - 15.0 mi East 17.3 mph - N/A   Mostly Cloudy
4:00 PM 30.2 °F 18.9 °F 26.6 °F 86% 29.64 in 15.0 mi East 16.1 mph - N/A   Overcast
5:00 PM 30.2 °F 18.9 °F 26.6 °F 86% 29.62 in 15.0 mi ENE 16.1 mph 24.2 mph N/A   Overcast
6:00 PM 30.2 °F 17.8 °F 26.6 °F 86% 29.60 in 15.0 mi ENE 19.6 mph 27.6 mph N/A   Overcast
7:00 PM 28.4 °F 14.7 °F 26.6 °F 93% 29.60 in 15.0 mi ENE 21.9 mph - N/A   Overcast
8:00 PM 29 °F - 26 °F 83% 29.59 in 15 mi ENE 24.2 mph - -   Partly Cloudy
8:00 PM 28.4 °F 14.1 °F 26.6 °F 93% 29.59 in 15.0 mi ENE 24.2 mph - N/A   Overcast
9:00 PM 28.4 °F 14.7 °F 26.6 °F 93% 29.58 in 15.0 mi ENE 21.9 mph 28.8 mph N/A   Overcast
10:00 PM 28.4 °F 16.2 °F 26.6 °F 93% 29.55 in 15.0 mi ENE 17.3 mph 25.3 mph N/A   Overcast
11:00 PM 30.2 °F 17.4 °F 28.4 °F 93% 29.52 in 15.0 mi ENE 20.7 mph 28.8 mph N/A   Overcast